ARIANE 40 R/B, 22830

Orbit data source: Space-Track

ARIANE 40 R/B, 22830 is space debris in SSO originally from a launch on Sun, 26 Sep 1993 UTC launched from the French Guiana (FRGUI). Debris objects in space refer to the collection of defunct objects orbiting the Earth. Examples of debris include non-operational satellites, rocket bodies, and fragments generated from explosions, collisions, or faulty payload assembly.

Loading next visibility...
Identifier
22830, 1993-061H
Orbit
SSO
Country
Flag of FRFR
Related business
Manufacturer
Ae/LesM
Mission
Spacecraft
Bus & Motor
ARIANE H10, Unknown motor
Mass
1,875 kg wet, 1,820 kg dry
Launch date (UTC)
1993-09-26 (33 years ago)
Launch vehicle
Unknown
Launch site
French Guiana (FRGUI)
Object type
Payload
Rocket body
Debris
Shape & HBR
Cyl, 6.0 m
Radar Cross Section
26.751 m², Large (>1 m²)

Expand to show TLE details & history
Last TLE update: 11 hours ago

TLE from 11 hours ago
0 ARIANE 40 R/B
1 22830U 93061H   26255.69927857  .00000098  00000-0  51459-4 0  9992
2 22830  98.4740 320.7040 0011906  91.1952 269.0597 14.32936481720883
Epoch: 2026-09-12T16:46Z
TLE epoch observation values (Epoch: 2026-09-12T16:46:57.668Z)
Latitude
0.00003°
Longitude
77.25918°
Altitude
785.022 km
Speed
7.461 km/s
True Right ascension
21h 22m 48s
True Declination
0° 00' 00"
Sunlit
Object was in full shadow at epoch
Visualization orbit readout
Latitude
Unknown
Longitude
Unknown
Altitude
Unknown
Speed
Unknown
Apparent Right ascension
Unknown
Apparent Declination
Unknown
Sunlit
N/A
Visualization observer readout
Local Sidereal Time
19:49:12
Azimuth
Unknown
Elevation
Unknown
Doppler factor
Unknown
Orbital elements
Apogee altitude
787.584 km
Perigee altitude
770.541 km
Semi-major axis
7,157.199 km
Eccentricity
0.00119
Inclination
98.474°
RAAN
320.704°
Arg. of periapsis
91.1952°
True anomaly
268.92329°
Mean anomaly
269.0597°
Eccentric anomaly
268.99149°
Mean motion
3.5845 °/min
Orbital period
100.43 mins
BSTAR
0.000051459
Loading maneuver chart data...
Computing Atmospheric mass density...
Loading historical data...
Loading historical data...
Loading historical data...
Loading historical data...
Loading historical data...
Loading historical data...
Loading historical data...

Documentation

Showing up to 5 results
|